Weather History for KGRB - March, 2014

Change the Weather History Date:

Friday, March 21, 2014

  Actual Average Record
Temperature  
Mean Temperature 31 °F 33 °F  
Max Temperature 39 °F 41 °F 82 °F (2012)
Min Temperature 22 °F 24 °F 1 °F (1965)
Degree Days  
Heating Degree Days 34 32  
Month to date heating degree days 934 762  
Since 1 July heating degree days 7415 6602  
Cooling Degree Days 0 0  
Month to date cooling degree days 0 0  
Year to date cooling degree days 0 0  
Moisture  
Dew Point 26 °F    
Average Humidity 83    
Maximum Humidity 96    
Minimum Humidity 70    
Precipitation  
Precipitation T in 0.06 in 0.92 in (1975)
Month to date precipitation 0.36 1.19  
Year to date precipitation 3.15 3.43  
Snow  
Snow T in 0.30 in 5.40 in (1913)
Month to date snowfall 3.9 6.3  
Since 1 July snowfall 66.2 46.5  
Snow Depth 4.00 in    
Sea Level Pressure  
Sea Level Pressure 29.90 in    
Wind  
Wind Speed 8 mph (SE)    
Max Wind Speed 22 mph    
Max Gust Speed 27 mph    
Visibility 8 miles    
Events Snow    
T = Trace of Precipitation, MM = Missing Value Source: NWS Daily Summary

Daily Weather History Graph

Daily Weather History Graph

Search for Another Location

Airport or City:

Trip Planner

Search our weather history database for the weather conditions in past years. The results will help you decide how hot, cold, wet, or windy it might be!

Date:

Astronomy

Mar. 21, 2014 Rise Set
Actual Time 6:53 AM CDT 7:06 PM CDT
Civil Twilight 6:24 AM CDT 7:35 PM CDT
Nautical Twilight 5:50 AM CDT 8:09 PM CDT
Astronomical Twilight 5:15 AM CDT 8:44 PM CDT
Moon No Moon Rise 9:34 AM CDT (3/21)
Length of Visible Light 13h 10m
Length of Day
12h 12m
Waning Gibbous, 75% of the Moon is Illuminated
Mar 21
Waning Gibbous
Mar 23
Last Quarter
Mar 30
New
Apr 7
First Quarter
Apr 15
Full

Hourly Weather History & Observations

Time (CDT) Temp. Windchill Dew Point Humidity Pressure Visibility Wind Dir Wind Speed Gust Speed Precip Events Conditions
12:53 AM 26.1 °F - 23.0 °F 88% 30.03 in 9.0 mi Calm Calm - N/A   Clear
1:53 AM 27.0 °F 23.0 °F 24.1 °F 89% 30.03 in 9.0 mi South 3.5 mph - N/A   Clear
2:53 AM 25.0 °F - 21.9 °F 88% 30.01 in 7.0 mi Calm Calm - N/A   Clear
3:53 AM 25.0 °F - 21.9 °F 88% 30.02 in 7.0 mi Calm Calm - N/A   Clear
4:53 AM 24.1 °F - 23.0 °F 96% 30.01 in 5.0 mi Calm Calm - N/A   Clear
5:53 AM 23.0 °F - 21.0 °F 92% 30.00 in 10.0 mi Calm Calm - N/A   Clear
6:53 AM 21.9 °F - 19.9 °F 92% 29.98 in 10.0 mi Calm Calm - N/A   Clear
7:53 AM 26.1 °F - 24.1 °F 92% 30.00 in 3.0 mi Calm Calm - N/A   Clear
8:53 AM 30.0 °F 23.2 °F 28.0 °F 92% 30.01 in 3.0 mi South 6.9 mph - N/A   Clear
9:53 AM 33.1 °F 25.5 °F 28.0 °F 82% 29.99 in 5.0 mi SSE 9.2 mph - N/A   Haze
10:53 AM 36.0 °F 27.5 °F 28.0 °F 73% 29.95 in 8.0 mi SSE 12.7 mph - N/A   Clear
11:53 AM 37.9 °F 29.2 °F 28.9 °F 70% 29.93 in 10.0 mi SSE 15.0 mph - N/A   Clear
12:53 PM 37.9 °F 27.6 °F 28.9 °F 70% 29.89 in 10.0 mi SSE 20.7 mph - N/A   Mostly Cloudy
1:53 PM 37.9 °F 28.9 °F 28.9 °F 70% 29.86 in 9.0 mi SSE 16.1 mph - N/A   Scattered Clouds
2:53 PM 37.9 °F 28.2 °F 28.9 °F 70% 29.83 in 9.0 mi SE 18.4 mph - N/A   Mostly Cloudy
3:53 PM 37.0 °F 27.4 °F 28.9 °F 73% 29.80 in 9.0 mi SSE 17.3 mph - N/A   Overcast
4:53 PM 36.0 °F 27.1 °F 28.0 °F 73% 29.81 in 9.0 mi SSE 13.8 mph - N/A   Overcast
5:10 PM 36.0 °F 29.6 °F 28.0 °F 73% 29.80 in 8.0 mi South 8.1 mph - N/A   Overcast
5:53 PM 36.0 °F 28.0 °F 27.0 °F 70% 29.81 in 9.0 mi SSE 11.5 mph - N/A   Overcast
6:53 PM 36.0 °F 29.6 °F 27.0 °F 70% 29.77 in 9.0 mi SE 8.1 mph - N/A   Overcast
7:53 PM 36.0 °F 32.1 °F 27.0 °F 70% 29.78 in 9.0 mi East 4.6 mph - N/A   Overcast
8:53 PM 35.1 °F 30.1 °F 27.0 °F 72% 29.79 in 10.0 mi East 5.8 mph - N/A   Overcast
9:53 PM 34.0 °F 29.8 °F 28.0 °F 79% 29.80 in 10.0 mi East 4.6 mph - N/A   Overcast
10:53 PM 33.1 °F 24.9 °F 30.0 °F 89% 29.83 in 5.0 mi NNE 10.4 mph - 0.00 in Snow Light Snow
11:48 PM 32.0 °F 25.6 °F 30.2 °F 93% 29.82 in 7.0 mi North 6.9 mph - 0.00 in   Overcast
11:53 PM 32.0 °F 26.4 °F 28.9 °F 88% 29.84 in 7.0 mi North 5.8 mph - 0.00 in   Mostly Cloudy